Regional Weather Roundup
Issued by NWS

Home | Current Version | Previous Version | Graphics & Text | Print | Product List | Glossary On
Versions: 1 2 3 4 5 6 7 8 9 10 11 12 13 14 15 16 17 18 19 20 21 22 23 24 25 26 27 28 29 30 31 32 33 34 35 36 37 38 39 40 41 42 43 44 45 46 47 48 49 50
000
ASUS43 KFSD 271202
RWRSD

WEATHER ROUNDUP FOR SOUTH DAKOTA
NATIONAL WEATHER SERVICE SIOUX FALLS SD
700 AM CDT MON MAR 27 2017

NOTE: "FAIR" INDICATES FEW OR NO CLOUDS BELOW 12,000 FEET WITH NO
SIGNIFICANT WEATHER AND/OR OBSTRUCTIONS TO VISIBILITY.


SDZ001>005-009-010-012>017-271300-
NORTHWEST AND NORTH CENTRAL SOUTH DAKOTA

CITY           SKY/WX    TMP DP  RH WIND       PRES   REMARKS
BUFFALO          N/A     36  33  89 SE7       29.81S
FAITH            N/A     34  34 100 MISG      29.90S
MOBRIDGE       CLOUDY    31  28  89 CALM      29.89S FOG
$$

SDZ012>016-024>037-041>051-057-063-072>074-271300-
SOUTHWEST AND SOUTH CENTRAL SOUTH DAKOTA

CITY           SKY/WX    TMP DP  RH WIND       PRES   REMARKS
RAPID CTY ARPT FOG       26  25  96 CALM      29.88S VSB 3/4
PIERRE         CLOUDY    37  36  96 CALM      29.92R FOG
CUSTER         CLOUDY    28  25  88 CALM      29.87F
ELLSWORTH AFB  CLEAR     30  30 100 CALM      29.87F
PHILIP         MOCLDY    36  35  96 CALM      29.92S
PINE RIDGE     CLEAR     32  32 100 E3        29.90S
SPEARFISH      FAIR      32  30  93 S7        29.87F WCI  26
WINNER         FAIR      32  31  96 S3        29.93S
$$

SDZ004>011-016>023-039-040-271300-
NORTHEAST SOUTH DAKOTA

CITY           SKY/WX    TMP DP  RH WIND       PRES   REMARKS
ABERDEEN       CLEAR     31  29  92 S3        29.94R FOG
WATERTOWN      CLOUDY    34  34 100 S3        29.93R
BROOKINGS      FOG       28  28 100 CALM      29.94S VSB 3/4
SISSETON         N/A     34  33  96 CALM      29.95R
$$

SDZ017-020-022-023-036>040-048>070-271300-
SOUTHEAST SOUTH DAKOTA

CITY           SKY/WX    TMP DP  RH WIND       PRES   REMARKS
SIOUX FALLS    CLOUDY    40  38  93 NE3       29.96R
HURON          CLOUDY    38  37  97 S3        29.94S
CHAMBERLAIN    FOG       31  31 100 CALM      29.94S VSB<1/4
MITCHELL       FOG       29  29 100 CALM      29.96S VSB 1/2
YANKTON        CLOUDY    43  39  87 E3        29.95S
$$

ABBREVIATIONS USED IN REMARKS
   TC - TEMPERATURE IN CELSIUS
  WCI - WIND CHILL INDEX
   HX - HEAT INDEX
  VSB - VISIBILITY




USA.gov is the U.S. government's official web portal to all federal, state and local government web resources and services.